{"data":{"norad_id":32783,"epoch":"2026-05-25T04:23:02.141952Z","epoch_age_seconds":49385,"freshness":"FRESH","line1":"1 32783U 08021A   26145.18266368  .00000783  00000+0  11215-3 0  9992","line2":"2 32783  97.7648 194.6755 0011667 179.1004 181.0231 14.79200643975403","mean_motion":14.79200643,"eccentricity":0.0011667,"inclination_deg":97.7648,"raan_deg":194.6755,"arg_perigee_deg":179.1004,"mean_anomaly_deg":181.0231,"bstar":0.00011215,"rev_number":97540,"period_min":97.349876557619,"perigee_km":623.66990251064,"apogee_km":640.02700256559,"semimajor_km":7009.9854525381,"source":"CELESTRAK","updated_at":"2026-05-25T13:38:12.772389Z"}}